This is the latest recevied weather packets stored in our database for station/object EA1GHG-11. If no packets are shown the sender has not sent any weather packets the latest 10 day(s).
| Time | Temp. | Humidity | Pressure | Rain* | Wind** | Luminosity | Snow |
|---|---|---|---|---|---|---|---|
| 1777819913 | 16.11° C | 100% | 1016.4 hPa | - | - | - | - |
| 1777818413 | 16.11° C | 100% | 1016.4 hPa | - | - | - | - |
| 1777816913 | 14.44° C | 100% | 1016.6 hPa | - | - | - | - |
| 1777815413 | 15° C | 100% | 1016.6 hPa | - | - | - | - |
| 1777813913 | 15.56° C | 100% | 1016.6 hPa | - | - | - | - |
| 1777812413 | 15° C | 100% | 1016.6 hPa | - | - | - | - |
| 1777810913 | 14.44° C | 100% | 1016.6 hPa | - | - | - | - |
| 1777810314 | 13.89° C | 100% | 1016.8 hPa | - | - | - | - |
| 1777808814 | 17.78° C | 100% | 1016.9 hPa | - | - | - | - |
| 1777807314 | 16.11° C | 100% | 1016.9 hPa | - | - | - | - |
| 1777805814 | 16.11° C | 100% | 1017 hPa | - | - | - | - |
| 1777804314 | 15.56° C | 100% | 1017.1 hPa | - | - | - | - |
| 1777802814 | 14.44° C | 100% | 1017 hPa | - | - | - | - |
| 1777801313 | 15.56° C | 100% | 1017 hPa | - | - | - | - |
| 1777799813 | 12.78° C | 100% | 1017.3 hPa | - | - | - | - |
| 1777798313 | 12.78° C | 100% | 1021.7 hPa | - | - | - | - |
| 1777796813 | 12.78° C | 100% | 1017.1 hPa | - | - | - | - |
| 1777795312 | 12.22° C | 100% | 1017.2 hPa | - | - | - | - |
| 1777793812 | 13.33° C | 100% | 1017.1 hPa | - | - | - | - |
| 1777792312 | 12.22° C | 100% | 1017 hPa | - | - | - | - |
| 1777790812 | 12.22° C | 100% | 1016.8 hPa | - | - | - | - |
| 1777789312 | 12.22° C | 100% | 1016.7 hPa | - | - | - | - |
| 1777788713 | 12.78° C | 100% | 1016.6 hPa | - | - | - | - |
| 1777787213 | 12.78° C | 100% | 1016.6 hPa | - | - | - | - |
| 1777785713 | 12.78° C | 100% | 1016.6 hPa | - | - | - | - |
* Rain since midnight (hover to see other rain measurements)
** Current wind speed in m/s (hover to see current wind gust speed)